Shenandoah, IA

2:23 PM CST on February 19, 2018 (GMT -0600)
Shenandoah Municipal

Weather History for KSDA - March, 2014

Change the Weather History Date:

Saturday, March 8, 2014

  Actual Average Record
Temperature  
Mean Temperature 30 °F -  
Max Temperature 39 °F 48 °F 77 °F (1977)
Min Temperature 21 °F 25 °F -5 °F (2008)
Degree Days  
Heating Degree Days 35    
Moisture  
Dew Point 19 °F    
Average Humidity 67    
Maximum Humidity 86    
Minimum Humidity 42    
Precipitation  
Precipitation 0.00 in - - ()
Sea Level Pressure  
Sea Level Pressure 30.29 in    
Wind  
Wind Speed 10 mph (North)    
Max Wind Speed 16 mph    
Max Gust Speed 24 mph    
Visibility 10 miles    
Events Snow    
Averages and records for this station are not official NWS values.
T = Trace of Precipitation, MM = Missing Value Source: NWS Daily Summary

Daily Weather History Graph

Daily Weather History Graph

Search for Another Location

Airport or City:

Trip Planner

Search our weather history database for the weather conditions in past years. The results will help you decide how hot, cold, wet, or windy it might be!

Date:

Astronomy

Mar. 08, 2014 Rise Set
Actual Time 6:44 AM CST 6:20 PM CST
Civil Twilight 6:17 AM CST 6:48 PM CST
Nautical Twilight 5:45 AM CST 7:19 PM CST
Astronomical Twilight 5:13 AM CST 7:51 PM CST
Moon 11:24 AM CST (3/8) 1:21 AM CST (3/8)
Length of Visible Light 12h 30m
Length of Day
11h 36m
First Quarter, 52% of the Moon is Illuminated
Mar 8
First Quarter
Mar 16
Full
Mar 23
Last Quarter
Mar 30
New
Apr 7
First Quarter

Hourly Weather History & Observations

Time (CST) Temp. Windchill Dew Point Humidity Pressure Visibility Wind Dir Wind Speed Gust Speed Precip Events Conditions
12:15 AM 28.4 °F 18.5 °F 21.2 °F 74% 30.17 in 10.0 mi North 11.5 mph 21.9 mph N/A   Overcast
12:35 AM 28.4 °F 17.5 °F 21.2 °F 74% 30.18 in 10.0 mi North 13.8 mph 23.0 mph N/A   Overcast
12:55 AM 26.6 °F 15.2 °F 21.2 °F 80% 30.18 in 10.0 mi North 13.8 mph - N/A   Overcast
1:15 AM 26.6 °F 15.7 °F 21.2 °F 80% 30.19 in 10.0 mi North 12.7 mph 24.2 mph N/A   Overcast
1:35 AM 26.6 °F 14.3 °F 21.2 °F 80% 30.19 in 10.0 mi North 16.1 mph 21.9 mph N/A   Overcast
1:55 AM 26.6 °F 16.2 °F 21.2 °F 80% 30.19 in 10.0 mi North 11.5 mph 19.6 mph N/A   Overcast
2:15 AM 26.6 °F 15.7 °F 21.2 °F 80% 30.19 in 10.0 mi North 12.7 mph 20.7 mph N/A   Overcast
2:35 AM 26.6 °F 15.2 °F 19.4 °F 74% 30.19 in 10.0 mi North 13.8 mph - N/A   Overcast
2:55 AM 26.6 °F 15.7 °F 19.4 °F 74% 30.20 in 10.0 mi North 12.7 mph 20.7 mph N/A   Overcast
3:15 AM 26.6 °F 15.7 °F 19.4 °F 74% 30.21 in 10.0 mi North 12.7 mph - N/A   Overcast
3:35 AM 26.6 °F 14.3 °F 19.4 °F 74% 30.22 in 9.0 mi North 16.1 mph - N/A   Overcast
3:55 AM 24.8 °F 12.4 °F 19.4 °F 80% 30.22 in 6.0 mi North 15.0 mph - N/A   Overcast
4:15 AM 24.8 °F 12.9 °F 19.4 °F 80% 30.23 in 7.0 mi North 13.8 mph - N/A Snow Light Snow
4:35 AM 24.8 °F 13.4 °F 19.4 °F 80% 30.23 in 10.0 mi North 12.7 mph - N/A   Overcast
4:55 AM 24.8 °F 14.0 °F 19.4 °F 80% 30.24 in 10.0 mi North 11.5 mph 18.4 mph N/A   Overcast
5:15 AM 24.8 °F 14.0 °F 19.4 °F 80% 30.25 in 10.0 mi North 11.5 mph - N/A   Overcast
5:35 AM 24.8 °F 13.4 °F 19.4 °F 80% 30.25 in 10.0 mi North 12.7 mph - N/A   Overcast
5:55 AM 24.8 °F 13.4 °F 19.4 °F 80% 30.27 in 10.0 mi North 12.7 mph - N/A   Overcast
6:15 AM 24.8 °F 15.3 °F 19.4 °F 80% 30.27 in 10.0 mi North 9.2 mph - N/A   Overcast
6:35 AM 24.8 °F 14.0 °F 19.4 °F 80% 30.27 in 10.0 mi North 11.5 mph - N/A   Overcast
6:55 AM 24.8 °F 15.3 °F 19.4 °F 80% 30.28 in 10.0 mi North 9.2 mph - N/A   Overcast
7:15 AM 23.0 °F 11.1 °F 17.6 °F 80% 30.29 in 10.0 mi NNW 12.7 mph - N/A   Mostly Cloudy
7:35 AM 23.0 °F 11.1 °F 17.6 °F 80% 30.30 in 10.0 mi North 12.7 mph - N/A   Mostly Cloudy
7:55 AM 21.2 °F 9.5 °F 15.8 °F 80% 30.31 in 10.0 mi North 11.5 mph - N/A   Mostly Cloudy
8:15 AM 23.0 °F 11.7 °F 15.8 °F 74% 30.32 in 10.0 mi North 11.5 mph - N/A   Mostly Cloudy
8:35 AM 23.0 °F 12.4 °F 15.8 °F 74% 30.32 in 10.0 mi North 10.4 mph 16.1 mph N/A   Partly Cloudy
8:55 AM 23.0 °F 12.4 °F 17.6 °F 80% 30.33 in 10.0 mi North 10.4 mph - N/A   Mostly Cloudy
9:15 AM 24.8 °F 14.0 °F 17.6 °F 74% 30.33 in 10.0 mi North 11.5 mph - N/A   Scattered Clouds
9:35 AM 26.6 °F 16.2 °F 17.6 °F 69% 30.34 in - North 11.5 mph - N/A   Clear
9:55 AM 28.4 °F 18.5 °F 17.6 °F 64% 30.34 in 10.0 mi NNW 11.5 mph - N/A   Clear
10:15 AM 28.4 °F 19.1 °F 17.6 °F 64% 30.34 in 10.0 mi North 10.4 mph - N/A   Clear
10:35 AM 30.2 °F 21.9 °F 19.4 °F 64% 30.34 in 10.0 mi North 9.2 mph - N/A   Clear
10:55 AM 30.2 °F 20.8 °F 19.4 °F 64% 30.35 in 10.0 mi North 11.5 mph - N/A   Clear
11:15 AM 32.0 °F 25.6 °F 19.4 °F 60% 30.35 in 10.0 mi North 6.9 mph 16.1 mph N/A   Partly Cloudy
11:35 AM 32.0 °F 24.2 °F 19.4 °F 60% 30.34 in 10.0 mi NNE 9.2 mph 16.1 mph N/A   Partly Cloudy
11:55 AM 33.8 °F 25.8 °F 19.4 °F 56% 30.34 in 10.0 mi North 10.4 mph - N/A   Clear
12:15 PM 33.8 °F 25.8 °F 19.4 °F 56% 30.33 in 10.0 mi North 10.4 mph - N/A   Clear
12:35 PM 35.6 °F 27.5 °F 17.6 °F 48% 30.32 in 10.0 mi NNE 11.5 mph - N/A   Clear
12:55 PM 35.6 °F 29.2 °F 19.4 °F 52% 30.32 in 10.0 mi North 8.1 mph 15.0 mph N/A   Clear
1:15 PM 37.4 °F 30.3 °F 19.4 °F 48% 30.31 in 10.0 mi North 10.4 mph 18.4 mph N/A   Clear
1:35 PM 37.4 °F 29.3 °F 17.6 °F 45% 30.30 in 10.0 mi NNW 12.7 mph - N/A   Clear
1:55 PM 37.4 °F 30.3 °F 17.6 °F 45% 30.30 in 10.0 mi North 10.4 mph - N/A   Clear
2:15 PM 39.2 °F 32.0 °F 17.6 °F 42% 30.30 in 10.0 mi NNW 11.5 mph - N/A   Clear
2:35 PM 37.4 °F 31.4 °F 17.6 °F 45% 30.30 in 10.0 mi North 8.1 mph 16.1 mph N/A   Clear
2:55 PM 37.4 °F 30.3 °F 17.6 °F 45% 30.29 in 10.0 mi North 10.4 mph - N/A   Clear
3:15 PM 39.2 °F 32.0 °F 17.6 °F 42% 30.30 in 10.0 mi North 11.5 mph - N/A   Clear
3:35 PM 39.2 °F 33.0 °F 17.6 °F 42% 30.30 in 10.0 mi North 9.2 mph - N/A   Clear
3:55 PM 37.4 °F 30.3 °F 17.6 °F 45% 30.30 in 10.0 mi North 10.4 mph 16.1 mph N/A   Clear
4:15 PM 37.4 °F 30.3 °F 17.6 °F 45% 30.30 in 10.0 mi North 10.4 mph - N/A   Clear
4:35 PM 37.4 °F 31.4 °F 17.6 °F 45% 30.30 in 10.0 mi North 8.1 mph 13.8 mph N/A   Clear
4:55 PM 37.4 °F 31.4 °F 17.6 °F 45% 30.30 in 10.0 mi North 8.1 mph - N/A   Clear
5:15 PM 37.4 °F 30.3 °F 17.6 °F 45% 30.31 in 10.0 mi North 10.4 mph - N/A   Clear
5:35 PM 37.4 °F 31.4 °F 17.6 °F 45% 30.32 in 10.0 mi North 8.1 mph - N/A   Clear
5:55 PM 35.6 °F 29.9 °F 17.6 °F 48% 30.32 in 10.0 mi NNE 6.9 mph - N/A   Clear
6:10 PM 33.8 °F 29.6 °F 17.6 °F 52% 30.32 in 10.0 mi NNE 4.6 mph - N/A   Clear
6:35 PM 32.0 °F 27.5 °F 19.4 °F 60% 30.32 in 10.0 mi NNE 4.6 mph - N/A   Clear
6:55 PM 32.0 °F 27.5 °F 19.4 °F 60% 30.32 in 10.0 mi NE 4.6 mph - N/A   Clear
7:15 PM 28.4 °F 23.3 °F 19.4 °F 69% 30.32 in 10.0 mi NNE 4.6 mph - N/A   Clear
7:35 PM 32.0 °F 26.4 °F 19.4 °F 60% 30.32 in 10.0 mi ENE 5.8 mph - N/A   Clear
7:55 PM 26.6 °F 21.2 °F 19.4 °F 74% 30.32 in 10.0 mi NE 4.6 mph - N/A   Clear
8:15 PM 28.4 °F - 19.4 °F 69% 30.33 in 10.0 mi Calm Calm - N/A   Clear
8:35 PM 28.4 °F - 19.4 °F 69% 30.32 in 10.0 mi Calm Calm - N/A   Clear
8:55 PM 26.6 °F - 19.4 °F 74% 30.33 in 10.0 mi Calm Calm - N/A   Clear
9:15 PM 24.8 °F - 19.4 °F 80% 30.32 in 10.0 mi Calm Calm - N/A   Clear
9:35 PM 26.6 °F - 19.4 °F 74% 30.32 in 10.0 mi Calm Calm - N/A   Clear
9:55 PM 26.6 °F - 21.2 °F 80% 30.32 in 10.0 mi Calm Calm - N/A   Clear
10:15 PM 23.0 °F - 19.4 °F 86% 30.32 in 10.0 mi Calm Calm - N/A   Clear
10:35 PM 24.8 °F - 21.2 °F 86% 30.32 in 10.0 mi Calm Calm - N/A   Clear
10:55 PM 21.2 °F - 17.6 °F 86% 30.32 in 10.0 mi Calm Calm - N/A   Clear
11:15 PM 23.0 °F - 19.4 °F 86% 30.32 in 10.0 mi Calm Calm - N/A   Clear
11:35 PM 23.0 °F - 19.4 °F 86% 30.32 in 10.0 mi Calm Calm - N/A   Clear
11:55 PM 23.0 °F - 19.4 °F 86% 30.31 in 10.0 mi Calm Calm - N/A   Clear